Location: *
(46.3500°N, 10.9000°E)
Time: 11:44:46
(UTC+00:00)

N. Korean satellite - Visible Passes

Search period start: 12 August 2022 00:00
Search period end: 22 August 2022 00:00
Orbit: 433 x 470 km, 97.3° (Epoch: 11 August)

Date Brightness Start Highest point End Pass type
(mag) Time Alt. Az. Time Alt. Az. Time Alt. Az.
14 Aug 9.6 03:33:49 10° ENE 03:35:48 14° E 03:37:45 10° SE visible
17 Aug 10.0 03:24:07 10° ENE 03:24:56 11° E 03:25:43 10° ESE visible
19 Aug 9.4 03:46:07 10° NE 03:48:46 20° E 03:51:23 10° SE visible
